#timestamp,LO_Frequency,Hit,StdDev 
1513267215.4,286047000.7,N
1513267235.2,286047002.5,N
1513267255.1,286046997.9,N
1513267256.0,286046997.9,N
1513267275.8,286046992.3,N
1513267295.6,286046988.9,Y
1513267315.5,286046993.9,P
1513267335.3,286046996.0,N
1513267355.1,286046994.5,N
1513267375.9,286046995.9,N
1513267395.7,286046992.5,Y
1513267415.5,286046997.9,P
1513267435.4,286046999.5,N
1513267455.2,286046998.9,N
1513267475.0,286047000.1,N
1513267475.9,286047000.1,N
1513267495.8,286046998.7,N
1513267515.6,286046998.1,N
1513267535.4,286047000.2,N
1513267555.3,286047004.2,Y
1513267575.1,286047003.6,P
1513267576.0,286047003.6,N
1513267595.8,286047002.3,N
1513267615.7,286046999.7,N
1513267635.5,286046998.3,N
1513267655.3,286046996.8,N
1513267675.1,286046999.2,N
1513267695.9,286046997.6,N
1513267715.7,286046993.6,N
1513267735.5,286046992.2,N
1513267755.4,286046995.9,N
1513267775.2,286046996.1,N
1513267795.0,286046999.3,N
1513267795.9,286046999.3,N
1513267815.8,286046998.8,N
1513267835.6,286047002.8,N
1513267855.4,286047002.6,N
1513267875.3,286046999.4,N
1513267895.1,286046997.3,N
1513267896.0,286046997.3,N
1513267915.8,286046994.9,N
1513267935.7,286046994.4,N
1513267955.5,286046992.8,N
1513267975.3,286046990.9,N
1513267995.1,286046993.1,N
1513268015.9,286046993.5,N
1513268035.7,286046999.2,N
1513268055.5,286046997.0,N
1513268075.4,286046993.3,N
1513268095.2,286046995.0,N
1513268115.0,286046996.4,N
1513268115.9,286046996.4,N
1513268135.8,286046999.1,N
1513268155.6,286046996.5,N
1513268175.4,286046998.2,N
1513268195.3,286046998.7,N
1513268215.1,286046997.1,N
1513268216.0,286046997.1,N
1513268235.8,286046997.5,N
1513268255.7,286046993.4,N
1513268275.5,286046993.0,N
1513268295.3,286046993.2,N
1513268315.1,286046997.6,N
1513268335.9,286046999.7,N
1513268355.7,286046998.3,N
1513268375.5,286046998.2,N
1513268395.4,286047002.4,N
1513268415.2,286046998.8,N
1513268435.0,286046996.1,N
1513268435.9,286046996.1,N
1513268455.8,286046994.7,N
1513268475.6,286046997.6,N
1513268495.4,286046993.4,N
1513268515.3,286046993.3,N
1513268535.1,286046993.7,N
1513268536.0,286046993.7,N
1513268555.8,286046993.7,N
1513268575.7,286046992.0,Y
1513268595.5,286046996.5,P
1513268615.3,286046999.2,P
1513268635.2,286046998.8,N
1513268655.9,286047000.3,N
1513268675.7,286047003.9,N
1513268695.6,286047004.4,N
1513268715.4,286047003.6,N
1513268735.2,286047005.7,N
1513268755.1,286047001.8,N
1513268756.0,286047001.8,N
1513268775.8,286047000.1,N
1513268795.6,286047001.4,N
1513268815.4,286047003.4,N
1513268835.3,286047005.8,N
1513268855.1,286047007.5,N
1513268875.8,286047002.0,N
1513268895.7,286047000.5,N
1513268915.5,286047000.8,N
1513268935.3,286046996.6,N
1513268955.2,286047000.6,N
1513268975.9,286047005.1,N
1513268995.7,286047004.3,N
1513269015.6,286047001.7,N
1513269035.4,286047004.6,N
1513269055.2,286047003.6,N
1513269075.0,286046999.0,N
1513269076.0,286046999.0,N
1513269095.8,286046995.3,N
1513269115.6,286046993.5,N
1513269135.4,286046990.5,N
1513269155.3,286046992.9,N
1513269175.1,286046990.6,N
1513269195.8,286046995.7,N
1513269215.7,286046996.9,N
1513269235.5,286046994.4,N
1513269255.3,286046992.5,N
1513269275.2,286046994.7,N
1513269295.9,286046991.8,N
1513269315.7,286046996.2,N
1513269335.6,286046997.3,N
1513269355.4,286046998.4,N
1513269375.2,286047001.4,N
1513269395.0,286047004.1,N
1513269396.0,286047004.1,N
1513269415.8,286047005.4,N
1513269435.6,286047007.3,N
1513269455.4,286047009.7,N
1513269475.3,286047013.9,N
1513269495.1,286047009.6,N
1513269515.8,286047009.9,N
1513269535.7,286047010.0,N
1513269555.5,286047012.2,N
1513269575.3,286047015.3,N
1513269595.2,286047015.3,N
1513269615.9,286047015.6,N
1513269635.7,286047010.1,N
1513269655.6,286047012.3,N
1513269675.4,286047009.4,N
1513269695.2,286047015.6,N
1513269715.0,286047016.0,N
1513269716.0,286047016.0,N
1513269735.8,286047020.1,N
1513269755.6,286047019.8,N
1513269775.4,286047019.8,N
1513269795.3,286047017.6,N
1513269815.1,286047022.8,N
1513269835.8,286047021.0,N
1513269855.7,286047023.6,Y
1513269875.5,286047014.9,P
1513269895.3,286047019.6,P
1513269915.2,286047022.0,P
1513269935.9,286047021.7,Y
1513269955.7,286047003.2,P
1513269975.6,286047002.2,N
1513269995.4,286047005.7,N
1513270015.2,286047007.5,N
1513270035.1,286047010.1,N
1513270036.0,286047010.1,N
1513270055.8,286047011.3,N
1513270075.6,286047015.6,Y
1513270095.5,286047005.4,P
1513270115.3,286047006.6,P
1513270135.1,286047009.2,P
1513270155.9,286047009.9,Y
1513270175.7,286047004.2,P
1513270195.5,286047000.4,N
1513270215.4,286047003.0,N
1513270235.2,286047009.2,Y
1513270255.0,286047007.6,P
1513270255.9,286047007.6,P
1513270275.8,286047006.0,P
1513270295.6,286047001.3,N
1513270315.4,286046996.7,N
1513270335.3,286046995.3,N
1513270355.1,286046993.0,N
1513270356.0,286046993.0,N
1513270375.8,286046988.0,N
1513270395.7,286046988.4,N
1513270415.5,286046986.4,N
1513270435.3,286046986.8,N
1513270455.2,286046988.1,N
1513270475.9,286046988.9,N
1513270495.7,286046993.1,N
1513270515.6,286046993.2,N
1513270535.4,286046990.0,N
1513270555.2,286046984.2,N
1513270575.0,286046984.7,N
1513270575.9,286046984.7,N
1513270595.8,286046984.7,N
1513270615.6,286046981.7,N
1513270635.4,286046980.4,N
1513270655.3,286046981.2,N
1513270675.1,286046981.0,N
1513270695.8,286046981.4,N
1513270715.7,286046979.3,N
1513270735.5,286046976.4,N
1513270755.3,286046976.0,N
1513270775.2,286046973.0,Y
1513270795.9,286046984.8,P
